SCP
0 0 0 0 0 0 0 0 0 0 0 0 0 0 0 0 0 0 0 -0 -0 -0 0 0 0 0 0 0 0 -0 0 0 0 0 0 0 0 0 0 0 0 0 0 0 0 0 0 0 0
0 0 0 0 0 0 0 0 0 0 0 0 0 0 0 0 0 0 0 -0 -0 0 -0 -0 -0 -0 -0 -0 0 0 0 0 0 0 0 0 0 0 0 0 0 0 -0 -0 0 0 0 0 0
0 0 0 0 0 0 0 0 0 0 0 0 0 0 0 0 0 0 0 0 0 -0 0 -0 -0 -0 -0 -0 -0 0 0 0 0 0 0 0 0 0 0 0 0 -0 -0 -0 0 0 0 0 0
0 0 0 0 0 0 0 0 0 0 0 0 0 0 0 0 0 0 0 0 0 0 0 0 -0 -0 -0 -0 -0 -0 -0 0 0 0 0 0 0 0 0 0 0 0 0 0 0 0 0 0 0
0 0 0 0 0 0 0 0 0 0 0 0 0 0 0 0 0 0 0 0 0 0 0 0 -0 -0 -0 0 -0 0 0 0 0 0 0 0 0 0 0 0 0 0 0 0 0 0 0 0 0
0 0 0 0 0 0 0 0 0 0 0 0 0 0 0 0 0 0 0 0 0 0 0 0 0 0 0 0 0 0 0 0 0 0 0 0 0 0 0 0 0 0 0 0 0 0 0 0 0
0 0 0 0 0 0 0 0 0 0 0 0 0 0 0 0 0 0 0 0 0 0 0 0 0 0 0 0 0 0 0 0 0 0 0 0 0 0 0 0 0 0 0 0 0 0 0 0 0
0 0 0 0 0 0 0 0 0 0 0 0 0 0 0 0 0 0 0 0 0 0 0 0 0 0 0 0 0 0 0 0 0 0 0 0 0 0 0 0 0 0 0 0 0 0 0 0 0
0 0 0 0 0 0 0 0 0 0 0 0 0 0 0 0 0 0 0 0 0 0 0 0 0 0 0 0 0 0 0 0 0 0 0 0 0 0 0 0 0 0 0 0 0 0 0 0 0
0 0 0 0 0 0 0 0 0 0 0 0 0 0 0 0 0 0 0 0 0 0 0 0 0 0 0 0 0 0 0 0 0 0 0 0 0 0 0 0 0 0 0 0 0 0 0 0 0
0 0 0 0 0 0 0 0 0 0 0 0 0 0 0 0 0 0 0 0 0 0 0 0 0 0 0 0 0 0 0 0 0 0 0 0 0 0 0 0 0 0 0 0 0 0 0 0 0
0 0 0 0 0 0 0 0 0 0 0 0 0 0 0 0 0 0 0 0 0 0 0 0 0 0 0 0 0 0 0 0 0 0 0 0 0 0 0 0 0 0 0 0 0 0 0 0 0
0 0 0 0 0 0 0 0 0 0 0 0 0 0 0 0 0 0 0 0 0 0 0 0 0 0 0 0 0 0 0 0 0 0 0 0 0 0 0 0 0 0 0 0 0 0 0 0 0
0 0 0 0 0 0 0 0 0 0 0 0 0 0 0 0 0 0 0 0 0 0 0 0 0 0 0 0 0 0 0 0 0 0 0 0 0 0 0 0 0 0 0 0 0 0 0 0 0
0 0 0 0 0 0 0 0 0 0 0 0 0 0 0 0 0 0 0 0 0 0 0 0 0 0 0 0 0 0 0 0 0 0 0 0 0 0 0 0 0 0 0 0 0 0 0 0 0
0 0 0 0 0 0 0 0 0 0 0 0 0 0 0 0 0 0 0 0 0 0 0 0 0 0 0 0 0 0 0 0 0 0 0 0 0 0 0 0 0 0 0 0 0 0 0 0 0
0 0 0 0 0 0 0 0 0 0 0 0 0 0 0 0 0 0 0 0 0 0 -0 0 0 0 0 0 0 0 0 0 0 0 0 0 0 0 0 0 0 0 0 0 0 0 0 0 0
0 0 0 0 0 0 0 0 0 0 0 0 0 0 0 0 0 0 0 0 0 0 0 0 0 0 0 0 0 0 0 0 0 0 0 0 0 0 0 0 0 0 0 0 0 0 0 -0 0
0 0 0 0 0 0 0 0 0 0 0 0 0 0 0 0 0 0 0 -0 -0 -0 -0 0 0 0 0 0 0 0 0 0 0 0 0 0 0 0 0 0 0 0 0 0 0 -0 -0 0 0
0 0 0 0 0 0 0 0 0 0 0 0 0 0 0 0 0 0 -0 -0 -0 -0 -0 -0 -0 -0 -0 -0 -0 -0 -0 -0 -0 0 0 0 0 0 0 0 0 0 0 0 0 0 -0 -0 -0
0 0 0 0 0 0 0 0 0 0 0 0 0 0 0 0 0 0 -0 -0 -0 -0 -0 -0 -0 -0 -0 -0 -0 -0 -0 -0 0 0 0 0 0 0 0 0 0 0 0 0 0 0 0 -0 -0
0 0 0 0 0 0 0 0 0 0 0 0 0 0 0 0 0 0 0 0 0 0 -0 -0 -0 -0 -0 -0 -0 -0 -0 -0 -0 -0 0 0 0 0 -0 0 -0 0 -0 0 0 0 0 0 0
0 0 0 0 0 0 0 0 0 0 0 0 0 0 0 0 0 0 0 0 0 0 0 0 0 -0 -0 -0 -0 -0 -0 -0 -0 -0 0 0 0 0 0 0 0 -0 -0 -0 0 0 0 0 -0
0 0 0 0 0 0 0 0 0 0 0 0 0 0 0 0 0 0 0 0 0 0 0 0 0 0 0 0 0 0 0 0 0 0 0 0 0 0 0 0 0 -0 -0 0 -0 -0 0 0 0
0 0 0 0 0 0 0 0 0 0 0 0 0 0 0 0 0 0 0 0 0 0 0 0 0 0 0 0 0 0 0 0 0 0 0 0 0 0 0 0 0 -0 -0 -0 -0 -0 -0 -0 0
0 0 0 0 0 0 0 0 0 0 0 0 0 0 0 0 0 0 0 0 0 0 0 0 0 0 0 0 0 0 0 0 0 0 0 0 0 0 0 0 0 0 -0 -0 -0 -0 -0 -0 0
0 0 0 0 0 0 0 0 0 0 0 0 0 0 0 0 0 0 0 0 0 0 0 0 0 0 0 0 0 0 0 0 0 0 0 0 0 0 0 0 0 0 0 -0 -0 -0 -0 -0 -0
0 0 0 0 0 0 0 0 0 0 0 0 0 0 0 0 0 0 0 0 0 0 0 0 0 0 0 0 0 0 0 0 0 0 0 0 0 0 0 0 0 0 0 0 0 -0 -0 -0 -0
0 0 0 0 0 0 0 0 0 0 0 0 0 0 0 0 0 0 0 0 0 0 0 0 0 0 0 0 0 0 0 0 0 0 0 0 0 0 0 0 0 0 0 0 0 0 -0 -0 -0
0 0 0 0 0 0 0 0 0 0 0 0 0 0 0 0 0 0 0 0 0 0 0 0 0 0 0 0 0 0 0 0 0 0 0 0 0 0 0 0 0 0 0 0 0 0 0 0 0
Wind_Speed_500mb
16 17 19 3 6 9 6 9 7 4 12 47 55 64 41 48 19 12 20 33 33 33 32 29 31 15 11 12 12 7 8 7 8 8 9 10 10 10 12 14 17 19 19 20 19 19 19 16 9
13 13 7 4 8 7 4 10 9 8 44 71 56 38 42 17 36 22 37 37 29 22 20 18 16 16 7 2 10 18 12 9 9 11 12 13 13 11 12 13 18 21 19 22 21 20 20 19 13
12 10 7 6 5 5 8 3 10 24 40 25 19 37 18 20 28 12 26 27 19 17 19 17 15 13 12 14 10 5 19 18 16 14 15 17 17 17 11 16 17 21 20 22 21 23 22 20 19
3 6 3 7 0 2 2 10 13 9 24 31 46 32 26 37 11 23 21 17 16 16 16 12 7 4 5 9 15 14 14 18 25 22 21 20 21 23 21 19 21 23 24 25 25 24 26 25 26
2 3 7 9 5 2 15 24 36 15 13 27 3 17 18 29 21 18 22 19 15 16 15 13 12 9 4 1 14 20 22 21 18 26 27 29 29 27 29 28 24 27 27 28 30 30 31 33 34
8 2 3 3 6 3 12 23 30 19 27 19 27 19 16 18 15 25 27 27 26 25 22 18 12 12 9 5 9 17 23 25 24 22 31 33 34 35 35 34 32 30 32 32 34 37 39 40 41
11 7 7 8 14 5 8 7 15 26 22 27 7 11 13 18 29 29 29 30 30 28 27 25 23 18 15 12 10 14 17 24 27 29 27 34 39 39 39 38 37 38 38 37 36 39 41 42 43
7 7 5 7 13 8 10 8 16 20 14 4 11 12 8 31 32 28 24 23 25 26 26 25 23 22 20 17 18 16 18 23 28 29 29 31 33 42 41 43 43 43 43 44 45 44 44 46 46
5 6 6 5 4 7 12 8 22 24 46 52 21 22 14 23 26 24 25 23 24 28 30 28 27 24 22 21 17 20 20 22 29 27 31 34 33 33 43 47 48 49 49 48 47 49 51 52 51
6 6 5 3 5 7 16 14 9 10 15 23 27 17 17 22 30 32 36 41 41 40 40 38 34 31 26 24 23 22 20 23 21 24 30 31 32 35 34 41 47 51 55 54 53 53 52 55 59
8 5 10 7 8 12 13 21 8 17 12 17 23 20 22 25 33 39 41 42 44 45 44 45 41 38 33 28 26 25 24 22 25 24 28 30 33 35 37 36 39 48 48 55 57 57 59 61 63
13 16 10 5 13 8 10 17 16 22 17 20 19 20 23 32 38 43 44 43 43 42 42 44 49 47 40 34 30 27 27 25 24 25 29 34 36 39 35 35 38 37 49 55 59 62 62 65 69
13 11 20 18 31 23 27 21 21 29 25 16 16 21 28 30 35 37 40 41 41 42 46 47 47 48 49 45 36 30 28 28 28 28 28 31 32 43 43 44 38 35 34 49 63 66 66 68 74
19 34 21 20 27 13 15 8 11 16 20 17 15 21 23 27 31 34 40 40 40 40 41 45 48 51 51 48 46 40 33 30 29 31 32 32 33 35 47 44 49 43 33 38 47 72 72 74 77
34 12 8 19 7 9 19 10 7 24 19 19 17 16 18 23 28 38 39 39 38 39 40 40 43 46 49 52 51 46 41 36 31 32 34 35 37 38 40 46 52 50 56 39 47 44 68 82 86
7 8 7 6 8 5 8 6 8 28 28 20 17 14 11 17 27 30 32 35 36 38 41 41 41 43 46 47 50 51 49 43 38 35 35 36 36 39 42 44 52 55 54 59 59 36 49 70 94
7 6 6 3 5 2 6 4 18 22 27 23 17 12 7 10 19 24 27 30 33 35 38 41 43 44 45 46 48 50 52 52 49 44 41 41 41 39 39 43 47 53 62 63 60 62 49 39 45
14 9 3 8 3 1 5 6 15 21 26 24 17 13 6 5 12 17 21 25 28 31 34 37 42 45 47 46 46 47 49 53 55 54 53 49 47 46 43 41 43 49 52 60 66 68 65 65 47
8 9 9 2 2 2 7 11 15 26 25 27 22 19 14 3 2 8 15 19 24 28 32 37 39 44 45 50 51 52 56 54 53 56 58 57 56 53 52 49 46 46 49 54 57 67 75 83 68
8 10 4 3 2 4 1 12 16 31 31 36 30 27 24 15 9 2 7 14 21 26 30 34 39 43 46 49 51 52 51 53 56 55 55 56 59 61 60 57 55 55 51 50 54 59 67 74 66
8 7 6 2 1 4 5 12 12 17 37 41 37 33 29 18 9 3 4 13 20 26 32 35 39 42 45 46 46 46 46 49 50 56 60 63 62 62 64 65 62 59 58 57 57 59 61 71 73
5 0 3 5 7 7 8 8 11 14 26 30 50 42 35 20 9 3 5 12 19 25 30 32 36 39 42 44 48 52 54 55 55 56 55 57 59 62 64 65 66 66 63 61 61 60 62 65 71
4 5 6 2 4 2 7 2 11 14 20 31 47 52 40 23 11 6 8 13 17 20 23 27 31 34 37 40 44 46 48 49 50 50 51 54 57 59 60 63 67 68 69 68 65 64 65 65 66
10 7 7 6 4 4 6 8 9 14 22 13 34 56 45 30 17 9 8 14 17 19 20 24 27 30 33 36 39 41 44 46 49 51 54 55 56 59 61 63 64 66 69 71 72 68 65 67 69
2 7 5 8 6 10 1 4 18 11 12 22 47 62 51 35 23 14 10 13 16 20 23 24 26 27 30 34 37 40 43 44 47 50 53 56 59 59 60 63 66 67 67 69 71 72 69 67 71
8 10 9 12 6 5 7 13 13 10 13 22 49 63 52 40 29 20 12 14 17 21 24 26 28 27 29 31 34 38 42 43 43 45 46 48 52 56 59 61 61 64 67 68 70 72 73 71 71
6 7 7 13 3 7 7 14 14 5 4 19 39 57 52 42 34 23 15 17 19 24 24 26 29 31 32 33 34 37 42 44 44 42 43 46 49 53 57 60 64 64 65 68 71 72 74 75 75
7 6 6 5 3 8 8 11 13 11 15 12 24 54 50 41 34 27 23 19 21 25 25 24 27 34 36 37 38 39 43 47 45 44 43 46 49 53 57 61 64 66 67 68 69 71 73 75 76
1 3 4 4 8 10 3 12 11 14 23 30 37 55 48 40 32 26 26 24 25 27 25 20 25 36 39 39 40 41 45 48 48 46 45 47 49 52 56 61 65 68 68 69 71 71 72 74 76
7 10 9 8 11 5 4 15 5 7 12 36 47 48 41 37 28 29 32 33 35 30 23 24 30 39 42 44 44 43 45 49 48 47 46 48 49 52 57 62 66 69 69 68 70 72 73 74 76
Wind_Direction_500mb
327 316 315 40 59 62 354 353 339 319 61 82 81 89 89 56 43 83 23 58 66 72 41 39 37 32 10 357 339 216 216 209 227 231 254 251 233 225 223 230 231 232 231 230 234 227 227 234 205
313 309 353 63 88 73 339 311 33 17 107 101 88 81 56 73 61 42 52 53 70 88 84 97 94 91 128 323 332 327 276 237 253 267 264 268 267 245 244 244 242 243 240 238 241 236 230 225 245
309 332 10 80 94 122 143 298 331 56 55 123 105 62 52 337 26 45 29 46 81 77 88 82 94 105 140 183 201 242 308 290 251 257 275 285 291 288 260 256 254 251 245 245 243 240 235 236 252
339 348 63 79 137 338 57 6 27 38 37 67 100 81 87 49 50 12 14 36 60 65 62 59 74 77 77 202 200 204 205 283 285 251 255 263 273 287 288 266 257 259 247 244 252 249 251 254 261
208 26 331 121 110 57 48 68 65 62 73 53 325 119 89 32 23 5 2 0 11 23 28 32 32 20 1 184 206 224 223 230 244 276 253 252 259 263 272 276 263 259 256 245 246 255 261 263 263
124 147 170 232 143 112 55 41 81 59 66 50 77 83 69 10 9 357 342 340 342 338 345 337 338 337 349 292 224 237 243 242 243 250 280 270 259 255 256 262 263 258 257 255 253 254 255 258 262
143 135 223 126 146 88 30 7 68 79 40 16 60 85 141 3 359 348 337 328 322 319 315 320 317 312 303 299 283 273 248 245 247 250 249 275 276 263 257 254 255 260 261 257 252 254 258 257 261
156 122 200 32 178 130 23 93 92 66 44 285 65 47 25 350 345 340 331 330 323 324 323 316 320 316 307 291 281 277 273 255 244 245 251 251 260 274 264 262 258 255 256 261 263 257 253 257 261
153 86 187 167 141 128 39 107 64 94 87 65 76 77 35 341 343 342 348 345 344 345 341 335 324 320 312 304 298 275 263 257 251 246 251 252 254 257 279 277 271 265 264 261 258 259 259 256 258
87 116 145 313 13 91 62 92 96 102 95 77 75 49 8 356 7 18 19 16 15 11 5 356 343 332 322 311 302 295 283 264 263 256 258 251 253 253 258 270 279 278 269 265 264 261 256 255 253
51 128 152 58 85 134 106 65 72 144 61 86 97 61 40 31 30 32 37 34 26 22 18 14 6 355 340 326 313 303 292 285 270 274 267 262 259 258 255 258 268 272 276 270 267 263 258 252 248
99 61 120 109 46 109 94 102 65 64 109 105 79 66 51 42 37 32 30 29 27 26 27 23 19 13 6 353 338 324 310 301 292 283 275 265 266 267 267 264 268 270 271 272 271 267 263 256 250
95 122 80 89 77 90 118 92 119 107 120 100 77 57 48 42 34 27 22 19 21 23 24 27 28 25 18 12 5 350 336 319 314 307 298 286 274 269 269 269 272 278 272 284 275 270 267 262 255
119 105 101 69 80 113 105 79 131 134 128 97 67 61 47 33 23 17 13 10 12 17 20 20 25 26 28 26 18 11 0 349 330 322 316 309 301 283 270 278 270 275 281 270 272 271 268 267 264
121 99 104 30 28 122 105 22 100 156 146 112 95 72 42 29 12 15 11 12 12 14 17 19 19 21 25 26 26 25 18 6 354 342 332 323 317 307 294 279 279 277 276 284 267 274 277 264 266
92 75 148 346 11 129 155 202 209 159 150 135 124 99 50 19 8 11 17 18 18 16 16 18 21 19 22 26 27 27 25 22 14 1 351 340 329 319 311 305 287 285 279 280 281 295 267 276 268
0 193 176 247 37 280 146 162 212 168 154 150 145 128 91 8 0 14 26 29 27 23 20 19 20 21 21 23 26 28 28 25 22 16 8 357 349 338 323 313 307 293 289 286 284 285 288 280 281
186 178 151 184 227 8 132 201 195 181 168 166 165 157 157 344 8 13 30 37 38 36 32 28 24 23 22 22 22 24 27 27 25 21 17 8 1 355 348 336 318 308 302 295 289 285 281 288 304
138 121 131 91 269 140 204 175 209 195 184 178 182 183 183 209 17 12 29 40 39 35 32 31 29 28 24 23 22 22 19 22 23 20 18 15 9 3 359 353 343 332 320 311 307 300 295 280 290
80 116 95 31 174 97 198 244 219 213 207 199 196 197 195 191 191 150 31 31 32 31 31 30 28 26 26 26 25 24 20 20 19 21 19 14 11 9 5 359 356 352 343 335 323 315 309 297 300
28 125 180 131 22 342 39 284 195 221 217 212 211 212 203 208 202 183 20 18 21 20 22 20 21 20 19 18 16 15 16 16 16 14 13 14 13 11 8 7 2 356 355 353 345 334 328 313 303
160 333 117 150 141 204 164 259 229 202 205 206 207 204 203 208 222 260 349 1 7 11 12 10 11 11 10 9 10 11 12 13 13 10 9 9 9 8 7 6 5 2 358 352 351 346 336 329 316
178 162 150 128 110 47 200 112 253 155 212 213 208 205 207 219 240 272 331 347 357 357 360 4 4 4 4 4 4 4 5 5 4 3 4 4 4 6 6 5 3 3 0 356 350 345 343 337 330
140 87 47 53 54 12 233 160 266 190 210 186 200 207 205 211 224 249 306 331 338 347 348 351 355 357 359 359 359 358 359 358 356 357 360 1 360 360 0 2 2 1 359 357 352 347 344 340 334
78 87 9 352 3 224 146 115 248 246 228 190 192 202 200 207 217 237 277 317 328 339 341 341 343 346 350 352 353 354 354 352 352 353 354 353 354 355 356 356 356 357 356 354 352 349 344 342 339
175 156 164 206 208 257 336 229 251 234 257 222 201 197 193 201 213 227 263 309 330 334 334 333 333 334 338 343 346 348 348 346 346 345 346 348 347 348 349 349 349 348 349 349 348 349 346 341 338
216 203 172 102 44 40 230 289 308 177 98 159 175 177 191 200 213 225 249 306 316 327 329 330 333 331 328 330 334 338 341 340 338 338 339 341 342 342 342 342 341 342 342 342 343 344 344 344 340
148 189 84 4 141 263 277 280 246 208 211 184 175 186 195 204 215 231 246 299 303 317 321 324 337 338 328 320 322 328 332 334 332 330 332 334 336 337 338 338 338 336 336 336 337 338 340 340 341
102 222 39 127 154 180 254 259 217 217 197 197 199 200 203 210 226 245 252 282 288 298 302 311 334 337 327 318 312 316 324 327 326 325 325 328 331 333 335 336 336 334 332 332 331 332 333 334 337
176 210 162 134 232 226 155 270 282 273 218 204 209 211 219 225 240 255 250 267 274 280 281 299 323 326 323 308 309 307 316 321 321 319 319 321 324 327 330 332 333 333 330 330 329 328 328 329 332
Wind_Speed_850mb
16 17 19 3 6 9 6 9 7 4 12 47 55 64 41 48 19 12 20 33 33 33 32 29 31 15 11 12 12 7 8 7 8 8 9 10 10 10 12 14 17 19 19 20 19 19 19 16 9
13 13 7 4 8 7 4 10 9 8 44 71 56 38 42 17 36 22 37 37 29 22 20 18 16 16 7 2 10 18 12 9 9 11 12 13 13 11 12 13 18 21 19 22 21 20 20 19 13
12 10 7 6 5 5 8 3 10 24 40 25 19 37 18 20 28 12 26 27 19 17 19 17 15 13 12 14 10 5 19 18 16 14 15 17 17 17 11 16 17 21 20 22 21 23 22 20 19
3 6 3 7 0 2 2 10 13 9 24 31 46 32 26 37 11 23 21 17 16 16 16 12 7 4 5 9 15 14 14 18 25 22 21 20 21 23 21 19 21 23 24 25 25 24 26 25 26
2 3 7 9 5 2 15 24 36 15 13 27 3 17 18 29 21 18 22 19 15 16 15 13 12 9 4 1 14 20 22 21 18 26 27 29 29 27 29 28 24 27 27 28 30 30 31 33 34
8 2 3 3 6 3 12 23 30 19 27 19 27 19 16 18 15 25 27 27 26 25 22 18 12 12 9 5 9 17 23 25 24 22 31 33 34 35 35 34 32 30 32 32 34 37 39 40 41
11 7 7 8 14 5 8 7 15 26 22 27 7 11 13 18 29 29 29 30 30 28 27 25 23 18 15 12 10 14 17 24 27 29 27 34 39 39 39 38 37 38 38 37 36 39 41 42 43
7 7 5 7 13 8 10 8 16 20 14 4 11 12 8 31 32 28 24 23 25 26 26 25 23 22 20 17 18 16 18 23 28 29 29 31 33 42 41 43 43 43 43 44 45 44 44 46 46
5 6 6 5 4 7 12 8 22 24 46 52 21 22 14 23 26 24 25 23 24 28 30 28 27 24 22 21 17 20 20 22 29 27 31 34 33 33 43 47 48 49 49 48 47 49 51 52 51
6 6 5 3 5 7 16 14 9 10 15 23 27 17 17 22 30 32 36 41 41 40 40 38 34 31 26 24 23 22 20 23 21 24 30 31 32 35 34 41 47 51 55 54 53 53 52 55 59
8 5 10 7 8 12 13 21 8 17 12 17 23 20 22 25 33 39 41 42 44 45 44 45 41 38 33 28 26 25 24 22 25 24 28 30 33 35 37 36 39 48 48 55 57 57 59 61 63
13 16 10 5 13 8 10 17 16 22 17 20 19 20 23 32 38 43 44 43 43 42 42 44 49 47 40 34 30 27 27 25 24 25 29 34 36 39 35 35 38 37 49 55 59 62 62 65 69
13 11 20 18 31 23 27 21 21 29 25 16 16 21 28 30 35 37 40 41 41 42 46 47 47 48 49 45 36 30 28 28 28 28 28 31 32 43 43 44 38 35 34 49 63 66 66 68 74
19 34 21 20 27 13 15 8 11 16 20 17 15 21 23 27 31 34 40 40 40 40 41 45 48 51 51 48 46 40 33 30 29 31 32 32 33 35 47 44 49 43 33 38 47 72 72 74 77
34 12 8 19 7 9 19 10 7 24 19 19 17 16 18 23 28 38 39 39 38 39 40 40 43 46 49 52 51 46 41 36 31 32 34 35 37 38 40 46 52 50 56 39 47 44 68 82 86
7 8 7 6 8 5 8 6 8 28 28 20 17 14 11 17 27 30 32 35 36 38 41 41 41 43 46 47 50 51 49 43 38 35 35 36 36 39 42 44 52 55 54 59 59 36 49 70 94
7 6 6 3 5 2 6 4 18 22 27 23 17 12 7 10 19 24 27 30 33 35 38 41 43 44 45 46 48 50 52 52 49 44 41 41 41 39 39 43 47 53 62 63 60 62 49 39 45
14 9 3 8 3 1 5 6 15 21 26 24 17 13 6 5 12 17 21 25 28 31 34 37 42 45 47 46 46 47 49 53 55 54 53 49 47 46 43 41 43 49 52 60 66 68 65 65 47
8 9 9 2 2 2 7 11 15 26 25 27 22 19 14 3 2 8 15 19 24 28 32 37 39 44 45 50 51 52 56 54 53 56 58 57 56 53 52 49 46 46 49 54 57 67 75 83 68
8 10 4 3 2 4 1 12 16 31 31 36 30 27 24 15 9 2 7 14 21 26 30 34 39 43 46 49 51 52 51 53 56 55 55 56 59 61 60 57 55 55 51 50 54 59 67 74 66
8 7 6 2 1 4 5 12 12 17 37 41 37 33 29 18 9 3 4 13 20 26 32 35 39 42 45 46 46 46 46 49 50 56 60 63 62 62 64 65 62 59 58 57 57 59 61 71 73
5 0 3 5 7 7 8 8 11 14 26 30 50 42 35 20 9 3 5 12 19 25 30 32 36 39 42 44 48 52 54 55 55 56 55 57 59 62 64 65 66 66 63 61 61 60 62 65 71
4 5 6 2 4 2 7 2 11 14 20 31 47 52 40 23 11 6 8 13 17 20 23 27 31 34 37 40 44 46 48 49 50 50 51 54 57 59 60 63 67 68 69 68 65 64 65 65 66
10 7 7 6 4 4 6 8 9 14 22 13 34 56 45 30 17 9 8 14 17 19 20 24 27 30 33 36 39 41 44 46 49 51 54 55 56 59 61 63 64 66 69 71 72 68 65 67 69
2 7 5 8 6 10 1 4 18 11 12 22 47 62 51 35 23 14 10 13 16 20 23 24 26 27 30 34 37 40 43 44 47 50 53 56 59 59 60 63 66 67 67 69 71 72 69 67 71
8 10 9 12 6 5 7 13 13 10 13 22 49 63 52 40 29 20 12 14 17 21 24 26 28 27 29 31 34 38 42 43 43 45 46 48 52 56 59 61 61 64 67 68 70 72 73 71 71
6 7 7 13 3 7 7 14 14 5 4 19 39 57 52 42 34 23 15 17 19 24 24 26 29 31 32 33 34 37 42 44 44 42 43 46 49 53 57 60 64 64 65 68 71 72 74 75 75
7 6 6 5 3 8 8 11 13 11 15 12 24 54 50 41 34 27 23 19 21 25 25 24 27 34 36 37 38 39 43 47 45 44 43 46 49 53 57 61 64 66 67 68 69 71 73 75 76
1 3 4 4 8 10 3 12 11 14 23 30 37 55 48 40 32 26 26 24 25 27 25 20 25 36 39 39 40 41 45 48 48 46 45 47 49 52 56 61 65 68 68 69 71 71 72 74 76
7 10 9 8 11 5 4 15 5 7 12 36 47 48 41 37 28 29 32 33 35 30 23 24 30 39 42 44 44 43 45 49 48 47 46 48 49 52 57 62 66 69 69 68 70 72 73 74 76
Wind_Direction_850mb
327 316 315 40 59 62 354 353 339 319 61 82 81 89 89 56 43 83 23 58 66 72 41 39 37 32 10 357 339 216 216 209 227 231 254 251 233 225 223 230 231 232 231 230 234 227 227 234 205
313 309 353 63 88 73 339 311 33 17 107 101 88 81 56 73 61 42 52 53 70 88 84 97 94 91 128 323 332 327 276 237 253 267 264 268 267 245 244 244 242 243 240 238 241 236 230 225 245
309 332 10 80 94 122 143 298 331 56 55 123 105 62 52 337 26 45 29 46 81 77 88 82 94 105 140 183 201 242 308 290 251 257 275 285 291 288 260 256 254 251 245 245 243 240 235 236 252
339 348 63 79 137 338 57 6 27 38 37 67 100 81 87 49 50 12 14 36 60 65 62 59 74 77 77 202 200 204 205 283 285 251 255 263 273 287 288 266 257 259 247 244 252 249 251 254 261
208 26 331 121 110 57 48 68 65 62 73 53 325 119 89 32 23 5 2 0 11 23 28 32 32 20 1 184 206 224 223 230 244 276 253 252 259 263 272 276 263 259 256 245 246 255 261 263 263
124 147 170 232 143 112 55 41 81 59 66 50 77 83 69 10 9 357 342 340 342 338 345 337 338 337 349 292 224 237 243 242 243 250 280 270 259 255 256 262 263 258 257 255 253 254 255 258 262
143 135 223 126 146 88 30 7 68 79 40 16 60 85 141 3 359 348 337 328 322 319 315 320 317 312 303 299 283 273 248 245 247 250 249 275 276 263 257 254 255 260 261 257 252 254 258 257 261
156 122 200 32 178 130 23 93 92 66 44 285 65 47 25 350 345 340 331 330 323 324 323 316 320 316 307 291 281 277 273 255 244 245 251 251 260 274 264 262 258 255 256 261 263 257 253 257 261
153 86 187 167 141 128 39 107 64 94 87 65 76 77 35 341 343 342 348 345 344 345 341 335 324 320 312 304 298 275 263 257 251 246 251 252 254 257 279 277 271 265 264 261 258 259 259 256 258
87 116 145 313 13 91 62 92 96 102 95 77 75 49 8 356 7 18 19 16 15 11 5 356 343 332 322 311 302 295 283 264 263 256 258 251 253 253 258 270 279 278 269 265 264 261 256 255 253
51 128 152 58 85 134 106 65 72 144 61 86 97 61 40 31 30 32 37 34 26 22 18 14 6 355 340 326 313 303 292 285 270 274 267 262 259 258 255 258 268 272 276 270 267 263 258 252 248
99 61 120 109 46 109 94 102 65 64 109 105 79 66 51 42 37 32 30 29 27 26 27 23 19 13 6 353 338 324 310 301 292 283 275 265 266 267 267 264 268 270 271 272 271 267 263 256 250
95 122 80 89 77 90 118 92 119 107 120 100 77 57 48 42 34 27 22 19 21 23 24 27 28 25 18 12 5 350 336 319 314 307 298 286 274 269 269 269 272 278 272 284 275 270 267 262 255
119 105 101 69 80 113 105 79 131 134 128 97 67 61 47 33 23 17 13 10 12 17 20 20 25 26 28 26 18 11 0 349 330 322 316 309 301 283 270 278 270 275 281 270 272 271 268 267 264
121 99 104 30 28 122 105 22 100 156 146 112 95 72 42 29 12 15 11 12 12 14 17 19 19 21 25 26 26 25 18 6 354 342 332 323 317 307 294 279 279 277 276 284 267 274 277 264 266
92 75 148 346 11 129 155 202 209 159 150 135 124 99 50 19 8 11 17 18 18 16 16 18 21 19 22 26 27 27 25 22 14 1 351 340 329 319 311 305 287 285 279 280 281 295 267 276 268
0 193 176 247 37 280 146 162 212 168 154 150 145 128 91 8 0 14 26 29 27 23 20 19 20 21 21 23 26 28 28 25 22 16 8 357 349 338 323 313 307 293 289 286 284 285 288 280 281
186 178 151 184 227 8 132 201 195 181 168 166 165 157 157 344 8 13 30 37 38 36 32 28 24 23 22 22 22 24 27 27 25 21 17 8 1 355 348 336 318 308 302 295 289 285 281 288 304
138 121 131 91 269 140 204 175 209 195 184 178 182 183 183 209 17 12 29 40 39 35 32 31 29 28 24 23 22 22 19 22 23 20 18 15 9 3 359 353 343 332 320 311 307 300 295 280 290
80 116 95 31 174 97 198 244 219 213 207 199 196 197 195 191 191 150 31 31 32 31 31 30 28 26 26 26 25 24 20 20 19 21 19 14 11 9 5 359 356 352 343 335 323 315 309 297 300
28 125 180 131 22 342 39 284 195 221 217 212 211 212 203 208 202 183 20 18 21 20 22 20 21 20 19 18 16 15 16 16 16 14 13 14 13 11 8 7 2 356 355 353 345 334 328 313 303
160 333 117 150 141 204 164 259 229 202 205 206 207 204 203 208 222 260 349 1 7 11 12 10 11 11 10 9 10 11 12 13 13 10 9 9 9 8 7 6 5 2 358 352 351 346 336 329 316
178 162 150 128 110 47 200 112 253 155 212 213 208 205 207 219 240 272 331 347 357 357 360 4 4 4 4 4 4 4 5 5 4 3 4 4 4 6 6 5 3 3 0 356 350 345 343 337 330
140 87 47 53 54 12 233 160 266 190 210 186 200 207 205 211 224 249 306 331 338 347 348 351 355 357 359 359 359 358 359 358 356 357 360 1 360 360 0 2 2 1 359 357 352 347 344 340 334
78 87 9 352 3 224 146 115 248 246 228 190 192 202 200 207 217 237 277 317 328 339 341 341 343 346 350 352 353 354 354 352 352 353 354 353 354 355 356 356 356 357 356 354 352 349 344 342 339
175 156 164 206 208 257 336 229 251 234 257 222 201 197 193 201 213 227 263 309 330 334 334 333 333 334 338 343 346 348 348 346 346 345 346 348 347 348 349 349 349 348 349 349 348 349 346 341 338
216 203 172 102 44 40 230 289 308 177 98 159 175 177 191 200 213 225 249 306 316 327 329 330 333 331 328 330 334 338 341 340 338 338 339 341 342 342 342 342 341 342 342 342 343 344 344 344 340
148 189 84 4 141 263 277 280 246 208 211 184 175 186 195 204 215 231 246 299 303 317 321 324 337 338 328 320 322 328 332 334 332 330 332 334 336 337 338 338 338 336 336 336 337 338 340 340 341
102 222 39 127 154 180 254 259 217 217 197 197 199 200 203 210 226 245 252 282 288 298 302 311 334 337 327 318 312 316 324 327 326 325 325 328 331 333 335 336 336 334 332 332 331 332 333 334 337
176 210 162 134 232 226 155 270 282 273 218 204 209 211 219 225 240 255 250 267 274 280 281 299 323 326 323 308 309 307 316 321 321 319 319 321 324 327 330 332 333 333 330 330 329 328 328 329 332